Regional Weather Roundup
Issued by NWS

Home | Current Version | Previous Version | Graphics & Text | Print | Product List | Glossary On
Versions: 1 2 3 4 5 6 7 8 9 10 11 12 13 14 15 16 17 18 19 20 21 22 23 24 25 26 27 28 29 30 31 32 33 34 35 36 37 38 39 40 41 42 43 44 45 46 47 48 49 50
000
ASUS43 KDTX 130301
RWRMI
MICHIGAN HOURLY REGIONAL WEATHER ROUNDUP
NATIONAL WEATHER SERVICE DETROIT/PONTIAC MI
1100 PM EDT SAT JUL 12 2014

NOTE: "FAIR" INDICATES FEW OR NO CLOUDS BELOW 12,000 FEET WITH NO
SIGNIFICANT WEATHER AND/OR OBSTRUCTION TO VISIBILITY.

MIZ047>049-052>055-059>063-066>070-074>076-081>083-130400-
SOUTHEAST LOWER MICHIGAN

CITY           SKY/WX    TMP DP  RH WIND       PRES   REMARKS
ADRIAN         CLOUDY    74  67  78 SW7       29.97F
ALMA           CLOUDY    73  68  86 S7        29.89S
ANN ARBOR      MOCLDY    74  67  78 SW6       29.95F
BAD AXE        CLOUDY    70  68  94 S10       29.90F
CARO           CLOUDY    73  72  98 CALM      29.89F FOG
DETROIT CITY   CLOUDY    79  68  69 S7        29.95F
DETROIT        MOCLDY    76  68  76 S8        29.96F
FLINT          CLOUDY    76  67  73 S8        29.91F
GROSSE ILE     MOCLDY    77  70  78 SW9       29.94F
HILLSDALE      CLOUDY    74  70  88 CALM      29.97F
HOWELL         CLOUDY    72  67  85 S8        29.93F

CITY           SKY/WX    TMP DP  RH WIND       PRES   REMARKS
JACKSON        CLOUDY    74  67  78 S8        29.95F
LAMBERTVILLE   MOCLDY    77  66  69 SW5       29.98F
LANSING        CLOUDY    74  67  78 S13       29.92F
LAPEER         MOCLDY    71  68  91 S6        29.92F
MASON          CLOUDY    73  67  84 S7        29.93F
MONROE         MOCLDY    75  66  73 S6        29.95F
PONTIAC        CLOUDY    73  67  81 S7        29.93F
PORT HOPE        N/A     69  67  93 SE6       29.88F
PORT HURON     CLOUDY    72  66  83 S5        29.94F
TRI CITIES     CLOUDY    75  69  81 SW10      29.87F
TROY           CLOUDY    76  69  78 SW5       29.95F
SAGINAW HB     CLOUDY    73  72  94 SW10      29.87F
$$
MIZ043>046-050>051-056>058-064>065-071>073-077>080-130400-
SOUTHWEST LOWER MICHIGAN

CITY           SKY/WX    TMP DP  RH WIND       PRES   REMARKS
BATTLE CREEK   CLOUDY    74  68  81 S13       29.94F
BENTON HARBOR  LGT RAIN  74  71  91 S7        29.87F
BIG RAPIDS     CLOUDY    71  71 100 SW8       29.87F FOG
COLDWATER      CLOUDY    76  68  78 S6        29.96S
FREMONT        CLOUDY    70  70 100 SW6       29.86F
HOLLAND        MOCLDY    73  70  90 S7        29.87F
GRAND RAPIDS   CLOUDY    73  70  90 S8        29.88F
IONIA          CLOUDY    73  69  87 S9        29.89F
KALAMAZOO      CLOUDY    74  68  81 S9        29.92F
LUDINGTON      CLOUDY    69  68  96 SW12      29.84F FOG
MARSHALL       CLOUDY    73  67  84 S6        29.94S
MOUNT PLEASANT LGT RAIN  72  70  95 S6        29.87F
MUSKEGON       CLOUDY    73  69  87 S6        29.86S
SOUTH HAVEN    CLOUDY    74  72  93 S7        29.87F
$$
MIZ016>042-130400-
NORTHERN LOWER MICHIGAN

CITY           SKY/WX    TMP DP  RH WIND       PRES   REMARKS
ALPENA         RAIN      69  67  93 S9        29.84F
BEAVER ISLAND  FOG       60  60 100 W6        29.82F VSB 1
BELLAIRE       CLOUDY    69  67  93 CALM      29.82F FOG
CADILLAC       LGT RAIN  68  68 100 SW10      29.86F
CHARLEVOIX     CLOUDY    65  65  97 CALM      29.86F FOG
FRANKFORT      LGT RAIN  67  64  91 W13       29.85R
GAYLORD        LGT RAIN  68  66  93 SW7       29.85F FOG
GRAYLING       CLOUDY    68  68 100 S3        29.85F
HARBOR SPRINGS RAIN      65  65  99 CALM      29.83F
HOUGHTON LAKE  CLOUDY    70  69  97 S9        29.86F
MANISTEE       CLOUDY    70  66  88 CALM      29.84F
OSCODA         LGT RAIN  69  67  93 S9        29.85F
PELLSTON       LGT RAIN  67  65  93 SE5       29.84F
ROGERS CITY    HVY RAIN  68  68  98 SW6       29.85S
TRAVERSE CITY  LGT RAIN  69  67  93 VRB6      29.81F FOG
$$
MIZ007>008-015-130400-
EASTERN UPPER MICHIGAN

CITY           SKY/WX    TMP DP  RH WIND       PRES   REMARKS
KINROSS        CLOUDY    68  64  88 SW3       29.83F
MACKINAC ISLAN CLOUDY    64  61  90 SW5       29.83F
NEWBERRY       CLOUDY    63  61  94 SW9       29.81F
S. S. MARIE    CLOUDY    70  62  76 SW3       29.82F
$$
MIZ004>006-011>014-085-130400-
CENTRAL UPPER MICHIGAN

CITY           SKY/WX    TMP DP  RH WIND       PRES   REMARKS
MANISTIQUE     LGT RAIN  59  58  97 CALM      29.80F
ESCANABA       CLOUDY    63  61  94 NW6       29.82F
MENOMINEE      CLOUDY    64  61  88 CALM      29.80F
SAWYER-GWINN   CLOUDY    65  62  91 SW7       29.84S
$$
MIZ001>003-009>011-084-130400-
WESTERN UPPER MICHIGAN

CITY           SKY/WX    TMP DP  RH WIND       PRES   REMARKS
IRON MOUNTAIN  CLOUDY    64  60  87 NW5       29.83F
HOUGHTON       CLOUDY    61  57  87 CALM      29.81F
COPPER HARBOR    N/A     54  51  90 N3        29.81S
IRONWOOD       PTCLDY    61  55  82 W3        29.84S
$$

ABBREVIATIONS USED IN REMARKS
   TC - TEMPERATURE IN CELSIUS
  WCI - WIND CHILL INDEX
   HX - HEAT INDEX
  VSB - VISIBILITY



USA.gov is the U.S. government's official web portal to all federal, state and local government web resources and services.